Regional Weather Roundup
Issued by NWS Sterling, VA

Home | Current Version | Previous Version | Graphics & Text | Print | Product List | Glossary On
Versions: 1 2 3 4 5 6 7 8 9 10 11 12 13 14 15 16 17 18 19 20 21 22 23 24 25 26 27 28 29 30 31 32 33 34 35 36 37 38 39 40 41 42 43 44 45 46 47 48 49 50
000
ASUS41 KLWX 270710
RWRLWX

REGIONAL WEATHER ROUNDUP
NATIONAL WEATHER SERVICE BALTIMORE MD/WASHINGTON DC
300 AM EDT FRI MAY 27 2016

Note: "FAIR" indicates few or no clouds below 12,000 feet
with no significant weather and/or obstructions to visibility.
 TC=TEMPERATURE CELSIUS

 * =Non NWS site. Station does not report precipitation (e.g. rain,
    snow, etc.), thunder, or fog.

DCZ001-MDZ009-015-VAZ040>042-051-053>054-270800-
WASHINGTON METRO

CITY           SKY/WX    TMP DP  RH WIND       PRES   REMARKS
WASHINGTON NAT MOCLDY    72  64  76 S7        30.05R
DULLES         MOCLDY    70  65  84 S5        30.06R
ANDREWS AFB    MOCLDY    71  64  76 S8        30.05S
FT BELVOIR     FAIR      66  64  94 CALM      30.05R
QUANTICO       FAIR      72  65  78 SW3       30.07R
COLLEGE PARK*  FAIR      70  63  78 CALM      30.04S
LEESBURG*      FAIR      70  68  94 SW3       30.06S
MANASSAS*      FAIR      66  66 100 CALM      30.06R

$$

MDZ006>007-011-014-270800-
BALTIMORE METRO

CITY           SKY/WX    TMP DP  RH WIND       PRES   REMARKS
BWI AIRPORT    PTCLDY    71  63  75 CALM      30.04S
MD SCIENCE CTR   N/A     73  63  70 MISG      30.05R
MARTIN STATE   CLEAR     72  68  88 SE6       30.06S
ANNAPOLIS      CLEAR     68  65  90 CALM      30.04S
FORT MEADE*    CLEAR     63  61  94 CALM      30.07R

$$

MDZ012-015-019>023-270800-
MARYLAND EASTERN SHORE

CITY           SKY/WX    TMP DP  RH WIND       PRES   REMARKS
OCEAN CITY     CLEAR     68  65  90 SW9       30.09S
SALISBURY      CLEAR     67  63  87 S3        30.09R
BAY BRIDGE AP* CLEAR     73  64  73 S8        30.05S
CAMBRIDGE*     CLEAR     70  64  83 S5        30.07S
EASTON*        CLEAR     74  70  86 S7        30.10S

$$

MDZ017>025-270800-
SOUTHERN MARYLAND

CITY           SKY/WX    TMP DP  RH WIND       PRES   REMARKS
PATUXENT RIVER CLEAR     73  64  73 SW13      30.06S
ST INIGOES     MOCLDY    73  66  78 S8        30.07R
LEONARDTOWN*   CLEAR     72  63  73 SW6       30.09R

$$

MDZ003>005-270800-
NORTH CENTRAL MARYLAND

CITY           SKY/WX    TMP DP  RH WIND       PRES   REMARKS
FREDERICK*     PTCLDY    70  68  94 CALM      30.08S
HAGERSTOWN APT CLOUDY    72  65  78 S6        30.06R
WESTMINSTER*   CLEAR     73  70  88 S3        30.07R

$$

MDZ501>502-270800-
WESTERN MARYLAND

CITY           SKY/WX    TMP DP  RH WIND       PRES   REMARKS
OAKLAND*       MOCLDY    63  59  88 W6        30.16S
CUMBERLAND*    CLOUDY    66  66 100 CALM      30.11F VSB<1/4

$$

VAZ025>031-270800-
SHENANDOAH VALLEY

CITY           SKY/WX    TMP DP  RH WIND       PRES   REMARKS
WINCHESTER*    MOCLDY    68  64  88 SW5       30.08R
FRONT ROYAL*   FAIR      68  63  83 SW5       30.07R
LURAY*         FAIR      64  64 100 CALM      30.10R
NEW MARKET*    FAIR      62  62  99 CALM      30.08S
STAUNTON*      FAIR      61  60  96 CALM      30.13R
WAYNESBORO*    PTSUNNY   62  60  94 S5        30.12S

$$

WVZ021-048>050-054>055-270800-
EASTERN WEST VIRGINIA PANHANDLE

CITY           SKY/WX    TMP DP  RH WIND       PRES   REMARKS
MARTINSBURG    CLOUDY    70  64  81 S5        30.05S
PETERSBURG*    CLOUDY    63  63  99 CALM      30.10F FOG

$$

VAZ036>039-050-270800-
CENTRAL FOOTHILLS

CITY           SKY/WX    TMP DP  RH WIND       PRES   REMARKS
CHARLOTTESVILL FAIR      70  63  78 W3        30.07S
CULPEPER*      FAIR      66  65  99 CALM      30.07S
ORANGE*        FAIR      64  64 100 CALM      30.09R
GORDONSVILLE*  PTSUNNY   65  64  96 CALM      30.07R
WARRENTON*     FAIR      66  61  83 CALM      30.05S

$$

VAZ055>057-270800-
NORTH AND CENTRAL PIEDMONT

CITY           SKY/WX    TMP DP  RH WIND       PRES   REMARKS
FREDERICKSBRG* NOT AVBL
STAFFORD*      FAIR      66  63  90 CALM      30.10R

$$

NCZ024-NYZ072-PAZ021-071-VAZ022-071-270800-
OTHER REGIONAL OBSERVATIONS

CITY           SKY/WX    TMP DP  RH WIND       PRES   REMARKS
NEW YORK CITY  CLEAR     74  54  49 VRB3      30.08S
PHILADELPHIA   MOCLDY    71  61  70 S5        30.06S
PITTSBURGH     CLOUDY    69  63  81 S3        30.06R
ROANOKE        MOCLDY    68  65  90 CALM      30.13S
RICHMOND       FAIR      70  65  84 S9        30.09R
RALEIGH        PTCLDY    70  59  68 SW7       30.13S

$$

ANZ530>537-270800-
MARINE OBSERVATIONS

STATION/POSITION TIME  TEMP    WIND        PRES
                       AIR SEA DIR/SP/G
                 (UTC) (F)     (DEG/KT/KT) (MB)
THOMAS PT LIGHT  0700   70 67  180/ 13/ 13 1018.7F
BALT KEY BRIDGE  0600   72                 1017.0F
COVE POINT       0600   74                 1018.4R
LEWISETTA        0600   74 72              1017.7R
SOLOMONS ISLAND  0600   74 68                N/A
PINEY POINT      0600          230/ 13/ 14   N/A

$$




USA.gov is the U.S. government's official web portal to all federal, state and local government web resources and services.